Time,TemperatureF,DewpointF,PressureIn,WindDirection,WindDirectionDegrees,WindSpeedMPH,WindSpeedGustMPH,Humidity,HourlyPrecipIn,Conditions,Clouds,dailyrainin,SoftwareType,DateUTC
2013-02-26 00:01:00,74.0,-99.9,29.79,South,181,10.0,12.0,-999,-99.99,,,-99.99,,2013-02-26 05:01:00,
2013-02-26 00:12:00,74.0,-99.9,29.79,South,176,9.0,12.0,-999,-99.99,,,-99.99,,2013-02-26 05:12:00,
2013-02-26 00:22:00,74.0,-99.9,29.78,South,184,10.0,12.0,-999,-99.99,,,-99.99,,2013-02-26 05:22:00,
2013-02-26 00:32:00,74.0,-99.9,29.78,South,179,11.0,13.0,-999,-99.99,,,-99.99,,2013-02-26 05:32:00,
2013-02-26 00:43:00,74.0,-99.9,29.77,South,179,11.0,14.0,-999,-99.99,,,-99.99,,2013-02-26 05:43:00,
2013-02-26 00:52:00,74.0,-99.9,29.76,South,178,11.0,15.0,-999,-99.99,,,-99.99,,2013-02-26 05:52:00,
2013-02-26 01:02:00,73.0,-99.9,29.76,South,183,9.0,12.0,-999,-99.99,,,-99.99,,2013-02-26 06:02:00,
2013-02-26 01:11:00,73.0,-99.9,29.76,South,183,9.0,14.0,-999,-99.99,,,-99.99,,2013-02-26 06:11:00,
2013-02-26 01:22:00,73.0,-99.9,29.76,South,187,10.0,14.0,-999,-99.99,,,-99.99,,2013-02-26 06:22:00,
2013-02-26 01:32:00,73.0,-99.9,29.76,South,186,9.0,14.0,-999,-99.99,,,-99.99,,2013-02-26 06:32:00,
2013-02-26 01:42:00,73.0,-99.9,29.76,South,181,9.0,14.0,-999,-99.99,,,-99.99,,2013-02-26 06:42:00,
2013-02-26 01:52:00,73.0,-99.9,29.76,South,183,10.0,13.0,-999,-99.99,,,-99.99,,2013-02-26 06:52:00,
2013-02-26 02:01:00,73.0,-99.9,29.75,South,182,10.0,13.0,-999,-99.99,,,-99.99,,2013-02-26 07:01:00,
2013-02-26 02:11:00,73.0,-99.9,29.75,South,183,9.0,14.0,-999,-99.99,,,-99.99,,2013-02-26 07:11:00,
2013-02-26 02:22:00,74.0,-99.9,29.75,South,185,12.0,15.0,-999,-99.99,,,-99.99,,2013-02-26 07:22:00,
2013-02-26 02:32:00,74.0,-99.9,29.74,South,184,12.0,17.0,-999,-99.99,,,-99.99,,2013-02-26 07:32:00,
2013-02-26 02:42:00,73.0,-99.9,29.74,South,184,12.0,16.0,-999,-99.99,,,-99.99,,2013-02-26 07:42:00,
2013-02-26 02:52:00,74.0,-99.9,29.73,South,184,13.0,17.0,-999,-99.99,,,-99.99,,2013-02-26 07:52:00,
2013-02-26 03:02:00,74.0,-99.9,29.73,South,189,13.0,17.0,-999,-99.99,,,-99.99,,2013-02-26 08:02:00,
2013-02-26 03:11:00,74.0,-99.9,29.72,South,188,15.0,19.0,-999,-99.99,,,-99.99,,2013-02-26 08:11:00,
2013-02-26 03:22:00,74.0,-99.9,29.73,SSW,192,15.0,23.0,-999,-99.99,,,-99.99,,2013-02-26 08:22:00,
2013-02-26 03:32:00,74.0,-99.9,29.72,SSW,193,17.0,22.0,-999,-99.99,,,-99.99,,2013-02-26 08:32:00,
2013-02-26 03:42:00,74.0,-99.9,29.72,SSW,195,19.0,26.0,-999,-99.99,,,-99.99,,2013-02-26 08:42:00,
2013-02-26 03:52:00,74.0,-99.9,29.70,SSW,193,20.0,27.0,-999,-99.99,,,-99.99,,2013-02-26 08:52:00,
2013-02-26 04:02:00,74.0,-99.9,29.70,SSW,193,19.0,26.0,-999,-99.99,,,-99.99,,2013-02-26 09:02:00,
2013-02-26 04:11:00,74.0,-99.9,29.69,SSW,194,23.0,31.0,-999,-99.99,,,-99.99,,2013-02-26 09:11:00,
2013-02-26 04:21:00,74.0,-99.9,29.69,SSW,193,17.0,24.0,-999,-99.99,,,-99.99,,2013-02-26 09:21:00,
2013-02-26 04:32:00,75.0,-99.9,29.69,SSW,194,22.0,32.0,-999,-99.99,,,-99.99,,2013-02-26 09:32:00,
2013-02-26 04:43:00,75.0,-99.9,29.68,SSW,194,20.0,29.0,-999,-99.99,,,-99.99,,2013-02-26 09:43:00,
2013-02-26 04:52:00,75.0,-99.9,29.70,SSW,195,20.0,29.0,-999,-99.99,,,-99.99,,2013-02-26 09:52:00,
2013-02-26 05:01:00,75.0,-99.9,29.71,SSW,198,18.0,23.0,-999,-99.99,,,-99.99,,2013-02-26 10:01:00,
2013-02-26 05:11:00,75.0,-99.9,29.71,SSW,194,22.0,28.0,-999,-99.99,,,-99.99,,2013-02-26 10:11:00,
2013-02-26 05:21:00,74.0,-99.9,29.72,SSW,201,24.0,29.0,-999,-99.99,,,-99.99,,2013-02-26 10:21:00,
2013-02-26 05:32:00,73.0,-99.9,29.72,SSW,207,19.0,26.0,-999,-99.99,,,-99.99,,2013-02-26 10:32:00,
2013-02-26 05:42:00,74.0,-99.9,29.72,SSW,207,24.0,32.0,-999,-99.99,,,-99.99,,2013-02-26 10:42:00,
2013-02-26 05:52:00,74.0,-99.9,29.71,SSW,205,21.0,29.0,-999,-99.99,,,-99.99,,2013-02-26 10:52:00,
2013-02-26 06:01:00,74.0,-99.9,29.71,SSW,205,24.0,29.0,-999,-99.99,,,-99.99,,2013-02-26 11:01:00,
2013-02-26 06:12:00,74.0,-99.9,29.71,SSW,205,22.0,30.0,-999,-99.99,,,-99.99,,2013-02-26 11:12:00,
2013-02-26 06:22:00,74.0,-99.9,29.72,SSW,205,21.0,27.0,-999,-99.99,,,-99.99,,2013-02-26 11:22:00,
2013-02-26 06:32:00,74.0,-99.9,29.72,SSW,206,24.0,29.0,-999,-99.99,,,-99.99,,2013-02-26 11:32:00,
2013-02-26 06:42:00,74.0,-99.9,29.72,SSW,204,23.0,28.0,-999,-99.99,,,-99.99,,2013-02-26 11:42:00,
2013-02-26 06:53:00,74.0,-99.9,29.72,SSW,205,22.0,29.0,-999,-99.99,,,-99.99,,2013-02-26 11:53:00,
2013-02-26 07:02:00,74.0,-99.9,29.72,SSW,204,23.0,30.0,-999,-99.99,,,-99.99,,2013-02-26 12:02:00,
2013-02-26 07:11:00,74.0,-99.9,29.71,SSW,207,27.0,34.0,-999,-99.99,,,-99.99,,2013-02-26 12:11:00,
2013-02-26 07:22:00,74.0,-99.9,29.70,SSW,205,23.0,32.0,-999,-99.99,,,-99.99,,2013-02-26 12:22:00,
2013-02-26 07:33:00,74.0,-99.9,29.70,SSW,206,22.0,28.0,-999,-99.99,,,-99.99,,2013-02-26 12:33:00,
2013-02-26 07:42:00,74.0,-99.9,29.70,SSW,208,25.0,33.0,-999,-99.99,,,-99.99,,2013-02-26 12:42:00,
2013-02-26 07:53:00,74.0,-99.9,29.70,SSW,211,30.0,37.0,-999,-99.99,,,-99.99,,2013-02-26 12:53:00,
2013-02-26 08:02:00,74.0,-99.9,29.70,SSW,204,25.0,37.0,-999,-99.99,,,-99.99,,2013-02-26 13:02:00,
2013-02-26 08:11:00,74.0,-99.9,29.70,SSW,207,22.0,33.0,-999,-99.99,,,-99.99,,2013-02-26 13:11:00,
2013-02-26 08:22:00,74.0,-99.9,29.70,SSW,206,25.0,31.0,-999,-99.99,,,-99.99,,2013-02-26 13:22:00,
2013-02-26 08:32:00,74.0,-99.9,29.72,SSW,210,29.0,34.0,-999,-99.99,,,-99.99,,2013-02-26 13:32:00,
2013-02-26 08:42:00,74.0,-99.9,29.72,SSW,206,27.0,35.0,-999,-99.99,,,-99.99,,2013-02-26 13:42:00,
2013-02-26 08:52:00,74.0,-99.9,29.73,SSW,212,30.0,37.0,-999,-99.99,,,-99.99,,2013-02-26 13:52:00,
2013-02-26 09:02:00,74.0,-99.9,29.73,SSW,206,23.0,31.0,-999,-99.99,,,-99.99,,2013-02-26 14:02:00,
2013-02-26 09:11:00,74.0,-99.9,29.73,SSW,206,24.0,32.0,-999,-99.99,,,-99.99,,2013-02-26 14:11:00,
2013-02-26 09:22:00,74.0,-99.9,29.74,SSW,213,31.0,37.0,-999,-99.99,,,-99.99,,2013-02-26 14:22:00,
2013-02-26 09:32:00,73.0,-99.9,29.76,SW,216,26.0,35.0,-999,-99.99,,,-99.99,,2013-02-26 14:32:00,
2013-02-26 09:42:00,73.0,-99.9,29.76,SW,218,27.0,36.0,-999,-99.99,,,-99.99,,2013-02-26 14:42:00,
2013-02-26 09:52:00,73.0,-99.9,29.78,SW,220,23.0,31.0,-999,-99.99,,,-99.99,,2013-02-26 14:52:00,
2013-02-26 10:02:00,73.0,-99.9,29.78,SW,220,23.0,29.0,-999,-99.99,,,-99.99,,2013-02-26 15:02:00,
2013-02-26 10:12:00,73.0,-99.9,29.78,SW,219,24.0,29.0,-999,-99.99,,,-99.99,,2013-02-26 15:12:00,
2013-02-26 10:22:00,72.0,-99.9,29.78,SW,220,21.0,27.0,-999,-99.99,,,-99.99,,2013-02-26 15:22:00,
2013-02-26 10:32:00,72.0,-99.9,29.78,SW,221,21.0,30.0,-999,-99.99,,,-99.99,,2013-02-26 15:32:00,
2013-02-26 10:42:00,69.0,-99.9,29.79,WSW,250,25.0,31.0,-999,-99.99,,,-99.99,,2013-02-26 15:42:00,
2013-02-26 10:52:00,68.0,-99.9,29.81,West,268,10.0,15.0,-999,-99.99,,,-99.99,,2013-02-26 15:52:00,
2013-02-26 11:02:00,67.0,-99.9,29.80,West,269,11.0,12.0,-999,-99.99,,,-99.99,,2013-02-26 16:02:00,
2013-02-26 11:11:00,67.0,-99.9,29.82,West,276,9.0,11.0,-999,-99.99,,,-99.99,,2013-02-26 16:11:00,
2013-02-26 11:22:00,67.0,-99.9,29.83,West,262,12.0,14.0,-999,-99.99,,,-99.99,,2013-02-26 16:22:00,
2013-02-26 11:32:00,67.0,-99.9,29.83,West,271,10.0,13.0,-999,-99.99,,,-99.99,,2013-02-26 16:32:00,
2013-02-26 11:42:00,66.0,-99.9,29.84,West,271,9.0,10.0,-999,-99.99,,,-99.99,,2013-02-26 16:42:00,
2013-02-26 11:52:00,65.0,-99.9,29.83,WSW,250,5.0,7.0,-999,-99.99,,,-99.99,,2013-02-26 16:52:00,
2013-02-26 12:01:00,65.0,-99.9,29.83,West,262,9.0,10.0,-999,-99.99,,,-99.99,,2013-02-26 17:01:00,
2013-02-26 12:11:00,66.0,-99.9,29.84,West,273,10.0,11.0,-999,-99.99,,,-99.99,,2013-02-26 17:11:00,
2013-02-26 12:22:00,67.0,-99.9,29.83,SW,231,9.0,9.0,-999,-99.99,,,-99.99,,2013-02-26 17:22:00,
2013-02-26 12:32:00,67.0,-99.9,29.82,SSW,213,9.0,10.0,-999,-99.99,,,-99.99,,2013-02-26 17:32:00,
2013-02-26 12:42:00,67.0,-99.9,29.81,SSW,193,9.0,12.0,-999,-99.99,,,-99.99,,2013-02-26 17:42:00,
2013-02-26 12:52:00,67.0,-99.9,29.81,SW,223,10.0,13.0,-999,-99.99,,,-99.99,,2013-02-26 17:52:00,
2013-02-26 13:02:00,68.0,-99.9,29.81,SSW,208,10.0,13.0,-999,-99.99,,,-99.99,,2013-02-26 18:02:00,
2013-02-26 13:12:00,68.0,-99.9,29.80,SSW,206,8.0,11.0,-999,-99.99,,,-99.99,,2013-02-26 18:12:00,
2013-02-26 13:21:00,69.0,-99.9,29.79,SSW,207,10.0,13.0,-999,-99.99,,,-99.99,,2013-02-26 18:21:00,
2013-02-26 13:32:00,70.0,-99.9,29.78,SSW,205,9.0,13.0,-999,-99.99,,,-99.99,,2013-02-26 18:32:00,
2013-02-26 13:42:00,70.0,-99.9,29.78,SW,219,10.0,11.0,-999,-99.99,,,-99.99,,2013-02-26 18:42:00,
2013-02-26 13:53:00,70.0,-99.9,29.78,SW,236,11.0,12.0,-999,-99.99,,,-99.99,,2013-02-26 18:53:00,
2013-02-26 14:02:00,70.0,-99.9,29.79,WSW,239,12.0,13.0,-999,-99.99,,,-99.99,,2013-02-26 19:02:00,
2013-02-26 14:11:00,69.0,-99.9,29.78,WSW,238,13.0,15.0,-999,-99.99,,,-99.99,,2013-02-26 19:11:00,
2013-02-26 14:22:00,69.0,-99.9,29.79,WSW,242,13.0,15.0,-999,-99.99,,,-99.99,,2013-02-26 19:22:00,
2013-02-26 14:32:00,69.0,-99.9,29.79,WSW,244,14.0,15.0,-999,-99.99,,,-99.99,,2013-02-26 19:32:00,
2013-02-26 14:42:00,68.0,-99.9,29.79,WSW,248,13.0,14.0,-999,-99.99,,,-99.99,,2013-02-26 19:42:00,
2013-02-26 14:52:00,68.0,-99.9,29.79,WSW,253,12.0,15.0,-999,-99.99,,,-99.99,,2013-02-26 19:52:00,
2013-02-26 15:01:00,68.0,-99.9,29.80,WSW,251,13.0,15.0,-999,-99.99,,,-99.99,,2013-02-26 20:01:00,
2013-02-26 15:11:00,68.0,-99.9,29.80,WSW,251,13.0,14.0,-999,-99.99,,,-99.99,,2013-02-26 20:11:00,
2013-02-26 15:22:00,68.0,-99.9,29.80,WSW,247,13.0,14.0,-999,-99.99,,,-99.99,,2013-02-26 20:22:00,
2013-02-26 15:32:00,68.0,-99.9,29.79,WSW,248,12.0,14.0,-999,-99.99,,,-99.99,,2013-02-26 20:32:00,
2013-02-26 15:42:00,68.0,-99.9,29.80,WSW,251,12.0,13.0,-999,-99.99,,,-99.99,,2013-02-26 20:42:00,
2013-02-26 15:52:00,68.0,-99.9,29.80,WSW,256,10.0,11.0,-999,-99.99,,,-99.99,,2013-02-26 20:52:00,
2013-02-26 16:02:00,68.0,-99.9,29.79,West,260,10.0,11.0,-999,-99.99,,,-99.99,,2013-02-26 21:02:00,
2013-02-26 16:11:00,68.0,-99.9,29.79,WSW,257,10.0,12.0,-999,-99.99,,,-99.99,,2013-02-26 21:11:00,
2013-02-26 16:21:00,68.0,-99.9,29.80,West,259,10.0,12.0,-999,-99.99,,,-99.99,,2013-02-26 21:21:00,
2013-02-26 16:31:00,68.0,-99.9,29.80,West,260,10.0,11.0,-999,-99.99,,,-99.99,,2013-02-26 21:31:00,
2013-02-26 16:41:00,68.0,-99.9,29.80,West,260,10.0,11.0,-999,-99.99,,,-99.99,,2013-02-26 21:41:00,
2013-02-26 16:51:00,68.0,-99.9,29.80,WSW,253,9.0,10.0,-999,-99.99,,,-99.99,,2013-02-26 21:51:00,
2013-02-26 17:01:00,68.0,-99.9,29.81,West,259,9.0,10.0,-999,-99.99,,,-99.99,,2013-02-26 22:01:00,
2013-02-26 17:11:00,68.0,-99.9,29.80,West,261,9.0,11.0,-999,-99.99,,,-99.99,,2013-02-26 22:11:00,
2013-02-26 17:21:00,69.0,-99.9,29.80,WSW,255,8.0,10.0,-999,-99.99,,,-99.99,,2013-02-26 22:21:00,
2013-02-26 17:32:00,69.0,-99.9,29.80,WSW,247,9.0,10.0,-999,-99.99,,,-99.99,,2013-02-26 22:32:00,
2013-02-26 17:42:00,69.0,-99.9,29.80,WSW,245,9.0,10.0,-999,-99.99,,,-99.99,,2013-02-26 22:42:00,
2013-02-26 17:52:00,69.0,-99.9,29.80,WSW,241,10.0,11.0,-999,-99.99,,,-99.99,,2013-02-26 22:52:00,
2013-02-26 18:01:00,69.0,-99.9,29.80,WSW,244,11.0,12.0,-999,-99.99,,,-99.99,,2013-02-26 23:01:00,
2013-02-26 18:11:00,69.0,-99.9,29.80,WSW,242,10.0,12.0,-999,-99.99,,,-99.99,,2013-02-26 23:11:00,
2013-02-26 18:21:00,69.0,-99.9,29.80,WSW,249,10.0,11.0,-999,-99.99,,,-99.99,,2013-02-26 23:21:00,
2013-02-26 18:32:00,69.0,-99.9,29.80,WSW,246,10.0,11.0,-999,-99.99,,,-99.99,,2013-02-26 23:32:00,
2013-02-26 18:42:00,69.0,-99.9,29.81,WSW,245,10.0,11.0,-999,-99.99,,,-99.99,,2013-02-26 23:42:00,
2013-02-26 18:52:00,69.0,-99.9,29.81,WSW,242,10.0,12.0,-999,-99.99,,,-99.99,,2013-02-26 23:52:00,
2013-02-26 19:02:00,69.0,-99.9,29.82,WSW,243,10.0,12.0,-999,-99.99,,,-99.99,,2013-02-27 00:02:00,
2013-02-26 19:11:00,69.0,-99.9,29.82,WSW,241,11.0,12.0,-999,-99.99,,,-99.99,,2013-02-27 00:11:00,
2013-02-26 19:22:00,69.0,-99.9,29.83,WSW,248,12.0,13.0,-999,-99.99,,,-99.99,,2013-02-27 00:22:00,
2013-02-26 19:32:00,69.0,-99.9,29.83,WSW,257,11.0,17.0,-999,-99.99,,,-99.99,,2013-02-27 00:32:00,
2013-02-26 19:42:00,69.0,-99.9,29.83,West,265,11.0,13.0,-999,-99.99,,,-99.99,,2013-02-27 00:42:00,
2013-02-26 19:52:00,69.0,-99.9,29.83,WNW,282,8.0,12.0,-999,-99.99,,,-99.99,,2013-02-27 00:52:00,
2013-02-26 20:01:00,69.0,-99.9,29.83,WNW,285,6.0,9.0,-999,-99.99,,,-99.99,,2013-02-27 01:01:00,
2013-02-26 20:11:00,69.0,-99.9,29.84,WNW,285,7.0,9.0,-999,-99.99,,,-99.99,,2013-02-27 01:11:00,
2013-02-26 20:22:00,69.0,-99.9,29.84,WNW,282,7.0,11.0,-999,-99.99,,,-99.99,,2013-02-27 01:22:00,
2013-02-26 20:32:00,69.0,-99.9,29.84,West,279,9.0,12.0,-999,-99.99,,,-99.99,,2013-02-27 01:32:00,
2013-02-26 20:42:00,69.0,-99.9,29.84,West,279,8.0,13.0,-999,-99.99,,,-99.99,,2013-02-27 01:42:00,
2013-02-26 20:52:00,69.0,-99.9,29.85,West,266,11.0,13.0,-999,-99.99,,,-99.99,,2013-02-27 01:52:00,
2013-02-26 21:02:00,69.0,-99.9,29.85,West,267,11.0,13.0,-999,-99.99,,,-99.99,,2013-02-27 02:02:00,
2013-02-26 21:16:00,69.0,-99.9,29.85,West,276,9.0,14.0,-999,-99.99,,,-99.99,,2013-02-27 02:16:00,
2013-02-26 21:24:00,69.0,-99.9,29.85,WNW,285,9.0,14.0,-999,-99.99,,,-99.99,,2013-02-27 02:24:00,
2013-02-26 21:32:00,68.0,-99.9,29.86,WNW,284,7.0,12.0,-999,-99.99,,,-99.99,,2013-02-27 02:32:00,
2013-02-26 21:42:00,68.0,-99.9,29.86,WNW,286,10.0,12.0,-999,-99.99,,,-99.99,,2013-02-27 02:42:00,
2013-02-26 21:52:00,68.0,-99.9,29.86,WNW,283,8.0,11.0,-999,-99.99,,,-99.99,,2013-02-27 02:52:00,
2013-02-26 22:02:00,68.0,-99.9,29.87,WNW,282,8.0,12.0,-999,-99.99,,,-99.99,,2013-02-27 03:02:00,
2013-02-26 22:11:00,68.0,-99.9,29.87,WNW,282,8.0,11.0,-999,-99.99,,,-99.99,,2013-02-27 03:11:00,
2013-02-26 22:22:00,68.0,-99.9,29.87,West,277,7.0,11.0,-999,-99.99,,,-99.99,,2013-02-27 03:22:00,
2013-02-26 22:32:00,68.0,-99.9,29.87,West,279,8.0,12.0,-999,-99.99,,,-99.99,,2013-02-27 03:32:00,
2013-02-26 22:42:00,68.0,-99.9,29.88,West,281,8.0,11.0,-999,-99.99,,,-99.99,,2013-02-27 03:42:00,
2013-02-26 22:52:00,68.0,-99.9,29.88,West,281,8.0,12.0,-999,-99.99,,,-99.99,,2013-02-27 03:52:00,
2013-02-26 23:02:00,68.0,-99.9,29.89,WNW,283,9.0,13.0,-999,-99.99,,,-99.99,,2013-02-27 04:02:00,
2013-02-26 23:12:00,68.0,-99.9,29.89,WNW,283,11.0,14.0,-999,-99.99,,,-99.99,,2013-02-27 04:12:00,
2013-02-26 23:22:00,68.0,-99.9,29.89,WNW,282,10.0,13.0,-999,-99.99,,,-99.99,,2013-02-27 04:22:00,
2013-02-26 23:32:00,68.0,-99.9,29.89,WNW,283,10.0,13.0,-999,-99.99,,,-99.99,,2013-02-27 04:32:00,
2013-02-26 23:42:00,68.0,-99.9,29.89,WNW,282,9.0,12.0,-999,-99.99,,,-99.99,,2013-02-27 04:42:00,
2013-02-26 23:52:00,68.0,-99.9,29.89,WNW,285,10.0,15.0,-999,-99.99,,,-99.99,,2013-02-27 04:52:00,